Hourly Weather Barra Mansa

Today, 25 October, Sunday

Time Temperature Precipitation Wind Pressure Humidity
00:00 +19°C° 0.8 mm 0 mps 719 mmHg 98%
01:00 +19°C° 0.5 mm 0 mps 718 mmHg 98%
02:00 +21°C° 0.5 mm 1 mps 718 mmHg 98%
03:00 +21°C° 0.5 mm 1 mps 717 mmHg 98%
04:00 +19°C° 0.2 mm 0 mps 718 mmHg 98%
05:00 +19°C° 0.2 mm 0 mps 718 mmHg 97%
06:00 +19°C° 0.2 mm 0 mps 718 mmHg 97%
07:00 +20°C° 0.2 mm 0 mps 718 mmHg 95%
08:00 +21°C° 0.2 mm 0 mps 718 mmHg 92%
09:00 +21°C° 0.2 mm 0 mps 719 mmHg 90%
10:00 +24°C° 0.9 mm 1 mps 718 mmHg 86%
11:00 +25°C° 0.9 mm 1 mps 718 mmHg 82%
12:00 +26°C° 0.9 mm 2 mps 718 mmHg 78%
13:00 +26°C° 1.9 mm 2 mps 717 mmHg 82%
14:00 +25°C° 1.9 mm 2 mps 717 mmHg 85%
15:00 +24°C° 1.9 mm 2 mps 716 mmHg 88%
16:00 +23°C° 1.5 mm 2 mps 716 mmHg 91%
17:00 +21°C° 1.5 mm 2 mps 717 mmHg 94%
18:00 +20°C° 1.5 mm 2 mps 717 mmHg 97%
19:00 +20°C° 0.6 mm 2 mps 717 mmHg 97%
20:00 +20°C° 0.6 mm 2 mps 717 mmHg 97%
21:00 +19°C° 0.6 mm 2 mps 718 mmHg 97%
22:00 +20°C° 0.1 mm 1 mps 718 mmHg 97%
23:00 +20°C° 0.1 mm 1 mps 718 mmHg 97%

Tomorrow, 26 October, Monday

Time Temperature Precipitation Wind Pressure Humidity
00:00 +20°C° 0.1 mm 1 mps 717 mmHg 97%
01:00 +20°C° 0 mm 1 mps 717 mmHg 97%
02:00 +19°C° 0 mm 1 mps 717 mmHg 97%
03:00 +19°C° 0 mm 1 mps 717 mmHg 97%
04:00 +19°C° 0 mm 1 mps 717 mmHg 97%
05:00 +19°C° 0 mm 1 mps 717 mmHg 96%
06:00 +19°C° 0 mm 1 mps 718 mmHg 96%
07:00 +21°C° 0.1 mm 1 mps 718 mmHg 90%
08:00 +23°C° 0.1 mm 1 mps 718 mmHg 84%
09:00 +25°C° 0.1 mm 1 mps 719 mmHg 77%
10:00 +25°C° 0.2 mm 1 mps 718 mmHg 74%
11:00 +26°C° 0.2 mm 2 mps 718 mmHg 70%
12:00 +27°C° 0.2 mm 2 mps 718 mmHg 66%
13:00 +27°C° 0.1 mm 2 mps 718 mmHg 67%
14:00 +27°C° 0.1 mm 2 mps 717 mmHg 67%
15:00 +27°C° 0.1 mm 3 mps 717 mmHg 68%
16:00 +25°C° 0 mm 2 mps 717 mmHg 75%
17:00 +24°C° 0 mm 2 mps 717 mmHg 82%
18:00 +21°C° 0 mm 2 mps 716 mmHg 89%
19:00 +21°C° 0 mm 1 mps 717 mmHg 92%
20:00 +21°C° 0 mm 1 mps 717 mmHg 94%
21:00 +18°C° 0 mm 0 mps 717 mmHg 96%
22:00 +18°C° 0 mm 0 mps 717 mmHg 97%
23:00 +17°C° 0 mm 0 mps 717 mmHg 97%

Day after tomorrow, 27 October, Tuesday

Time Temperature Precipitation Wind Pressure Humidity
00:00 +17°C° 0 mm 0 mps 716 mmHg 98%
01:00 +17°C° 0 mm 0 mps 716 mmHg 98%
02:00 +17°C° 0 mm 0 mps 715 mmHg 98%
03:00 +16°C° 0 mm 0 mps 715 mmHg 98%
04:00 +17°C° 0 mm 0 mps 715 mmHg 97%
05:00 +17°C° 0 mm 0 mps 715 mmHg 96%
06:00 +17°C° 0 mm 0 mps 715 mmHg 95%
07:00 +20°C° 0 mm 0 mps 715 mmHg 85%
08:00 +23°C° 0 mm 0 mps 716 mmHg 76%
09:00 +25°C° 0 mm 0 mps 716 mmHg 67%
10:00 +27°C° 0.1 mm 0 mps 716 mmHg 62%
11:00 +29°C° 0.1 mm 0 mps 716 mmHg 58%
12:00 +31°C° 0.1 mm 0 mps 715 mmHg 53%
13:00 +33°C° 0.2 mm 1 mps 715 mmHg 55%
14:00 +32°C° 0.2 mm 1 mps 714 mmHg 57%
15:00 +31°C° 0.2 mm 1 mps 714 mmHg 58%
16:00 +29°C° 0.4 mm 1 mps 714 mmHg 68%
17:00 +27°C° 0.4 mm 1 mps 714 mmHg 79%
18:00 +24°C° 0.4 mm 1 mps 714 mmHg 89%
19:00 +23°C° 0.1 mm 1 mps 715 mmHg 91%
20:00 +22°C° 0.1 mm 1 mps 715 mmHg 93%
21:00 +21°C° 0.1 mm 1 mps 716 mmHg 95%
22:00 +21°C° 0 mm 1 mps 716 mmHg 95%
23:00 +19°C° 0 mm 0 mps 716 mmHg 96%

28 October, Wednesday

Time Temperature Precipitation Wind Pressure Humidity
00:00 +18°C° 0 mm 0 mps 716 mmHg 96%
01:00 +18°C° 0 mm 0 mps 716 mmHg 96%
02:00 +18°C° 0 mm 0 mps 716 mmHg 96%
03:00 +18°C° 0 mm 0 mps 716 mmHg 96%
04:00 +18°C° 0 mm 0 mps 716 mmHg 95%
05:00 +18°C° 0 mm 0 mps 716 mmHg 94%
06:00 +19°C° 0 mm 0 mps 716 mmHg 93%
07:00 +22°C° 0 mm 0 mps 717 mmHg 84%
08:00 +24°C° 0 mm 0 mps 717 mmHg 75%
09:00 +27°C° 0 mm 0 mps 718 mmHg 65%
10:00 +29°C° 0 mm 0 mps 718 mmHg 60%
11:00 +31°C° 0 mm 0 mps 717 mmHg 55%
12:00 +34°C° 0 mm 1 mps 717 mmHg 50%
13:00 +33°C° 0.3 mm 1 mps 717 mmHg 55%
14:00 +32°C° 0.3 mm 2 mps 716 mmHg 60%
15:00 +30°C° 0.3 mm 3 mps 716 mmHg 66%
16:00 +28°C° 0.3 mm 3 mps 716 mmHg 74%
17:00 +26°C° 0.3 mm 2 mps 716 mmHg 82%
18:00 +24°C° 0.3 mm 2 mps 716 mmHg 90%
19:00 +23°C° 0 mm 1 mps 716 mmHg 93%
20:00 +23°C° 0 mm 1 mps 716 mmHg 95%
21:00 +20°C° 0 mm 0 mps 716 mmHg 97%
22:00 +20°C° 0 mm 0 mps 716 mmHg 97%
23:00 +20°C° 0 mm 0 mps 717 mmHg 96%

29 October, Thursday

Time Temperature Precipitation Wind Pressure Humidity
00:00 +20°C° 0 mm 0 mps 717 mmHg 96%
01:00 +20°C° 0 mm 0 mps 717 mmHg 96%
02:00 +20°C° 0 mm 0 mps 716 mmHg 96%
03:00 +20°C° 0 mm 0 mps 716 mmHg 97%
04:00 +20°C° 0 mm 0 mps 716 mmHg 96%
05:00 +20°C° 0 mm 0 mps 717 mmHg 95%
06:00 +20°C° 0 mm 0 mps 717 mmHg 94%
07:00 +24°C° 0 mm 1 mps 717 mmHg 87%
08:00 +26°C° 0 mm 1 mps 718 mmHg 80%
09:00 +28°C° 0 mm 2 mps 718 mmHg 73%
10:00 +29°C° 0 mm 2 mps 718 mmHg 65%
11:00 +31°C° 0 mm 2 mps 718 mmHg 57%
12:00 +34°C° 0 mm 2 mps 717 mmHg 49%
13:00 +34°C° 0 mm 2 mps 717 mmHg 48%
14:00 +34°C° 0 mm 2 mps 717 mmHg 47%
15:00 +34°C° 0 mm 2 mps 716 mmHg 47%
16:00 +30°C° 0.5 mm 1 mps 716 mmHg 61%
17:00 +27°C° 0.5 mm 1 mps 716 mmHg 75%
18:00 +24°C° 0.5 mm 1 mps 716 mmHg 90%
19:00 +24°C° 0.4 mm 1 mps 717 mmHg 91%
20:00 +24°C° 0.4 mm 1 mps 717 mmHg 93%
21:00 +24°C° 0.4 mm 1 mps 717 mmHg 95%
22:00 +24°C° 0 mm 1 mps 717 mmHg 95%
23:00 +23°C° 0 mm 1 mps 717 mmHg 95%

30 October, Friday

Time Temperature Precipitation Wind Pressure Humidity
00:00 +23°C° 0 mm 1 mps 717 mmHg 95%
01:00 +23°C° 0 mm 1 mps 716 mmHg 94%
02:00 +23°C° 0 mm 1 mps 716 mmHg 94%
03:00 +23°C° 0 mm 1 mps 716 mmHg 94%
04:00 +23°C° 0 mm 1 mps 716 mmHg 93%
05:00 +23°C° 0 mm 1 mps 717 mmHg 92%
06:00 +23°C° 0 mm 1 mps 717 mmHg 91%
07:00 +26°C° 0 mm 1 mps 718 mmHg 81%
08:00 +28°C° 0 mm 1 mps 718 mmHg 72%
09:00 +31°C° 0 mm 1 mps 719 mmHg 62%
10:00 +32°C° 0.3 mm 1 mps 719 mmHg 60%
11:00 +33°C° 0.3 mm 1 mps 719 mmHg 58%
12:00 +34°C° 0.3 mm 1 mps 719 mmHg 56%
13:00 +32°C° 0.4 mm 2 mps 718 mmHg 63%
14:00 +30°C° 0.4 mm 3 mps 718 mmHg 71%
15:00 +28°C° 0.4 mm 4 mps 718 mmHg 78%
16:00 +27°C° 1 mm 3 mps 718 mmHg 84%
17:00 +25°C° 1 mm 3 mps 719 mmHg 90%
18:00 +23°C° 1 mm 2 mps 719 mmHg 96%
19:00 +23°C° 1 mm 2 mps 720 mmHg 96%
20:00 +23°C° 1 mm 2 mps 720 mmHg 97%
21:00 +22°C° 1 mm 1 mps 721 mmHg 98%
22:00 +22°C° 0.1 mm 1 mps 721 mmHg 98%
23:00 +22°C° 0.1 mm 1 mps 721 mmHg 97%
Show more